STARLINK-33870

Last updated on Mon Jun 02 2025 00:02:04 GMT+0000 (Coordinated Universal Time)

1 63794U 25091V 25152.58335648 -.01076409 00000+0 -22867-1 0 9997 2 63794 42.9999 200.7282 0001551 265.9284 69.1217 15.47140450 5981

Satellite not in orbit